Regional Weather Roundup
Issued by NWS

Home | Current Version | Previous Version | Text Only | Print | Product List | Glossary On
Versions: 1 2 3 4 5 6 7 8 9 10 11 12 13 14 15 16 17 18 19 20 21 22 23 24 25 26 27 28 29 30 31 32 33 34 35 36 37 38 39 40 41 42 43 44 45 46 47 48 49 50
000
ASUS44 KOUN 280210
RWROK

WEATHER ROUNDUP FOR OKLAHOMA
NATIONAL WEATHER SERVICE NORMAN OK
900 PM CDT MON MAR 27 2017

NOTE: "FAIR" INDICATES FEW OR NO CLOUDS BELOW 12,000 FEET WITH NO
      SIGNIFICANT WEATHER AND/OR OBSTRUCTIONS TO VISIBILITY.

OKZ001>007-009>012-014-015-017-280300-
NORTHWEST OKLAHOMA AND THE PANHANDLE

CITY           SKY/WX    TMP DP  RH WIND       PRES   REMARKS
GAGE           CLEAR     58  42  55 E9        29.88R
GUYMON         CLEAR     60  38  43 SE10      29.83S
ENID/WOODRING  PTCLDY    50  48  93 NE8       29.93R
$$

OKZ016-021>023-033>039-044-045-280300-
SOUTHWEST OKLAHOMA

CITY           SKY/WX    TMP DP  RH WIND       PRES   REMARKS
LAWTON/REGL    CLEAR     61  47  59 NE9       29.88R
LAWTON/FT SILL CLEAR     62  48  60 NE8       29.87R
FREDERICK      CLEAR     61  47  59 E9        29.84R
CLINTON        CLEAR     59  45  59 E9        29.90R
HOBART         CLEAR     56  47  71 E9        29.89R
ALTUS AFB      CLEAR     58  44  60 E7        29.86S
$$

OKZ018>020-024>031-280300-
CENTRAL OKLAHOMA

CITY           SKY/WX    TMP DP  RH WIND       PRES   REMARKS
OKLAHOMA CITY  CLEAR     61  46  57 NE12      29.90R
OKC/WILEY POST CLEAR     60  49  66 NE9       29.91R
OKC/TINKER AFB CLEAR     58  47  65 NE8       29.90R
STILLWATER     CLEAR     51  45  79 NE6       29.93R
GUTHRIE        CLEAR     55  47  74 NE7       29.92R
$$

OKZ008-013-054>072-280300-
NORTHEAST OKLAHOMA

CITY           SKY/WX    TMP DP  RH WIND       PRES   REMARKS
TULSA          PTCLDY    57  48  72 NE6       29.93R
TULSA/JONES    CLEAR     55  47  74 N6        29.94R
PONCA CITY     CLEAR     50  44  80 CALM      29.95R
BARTLESVILLE   CLOUDY    55  47  74 N6        29.97R
MUSKOGEE       CLEAR     54  49  83 NE5       29.94R
$$

OKZ032-040>043-046>053-073>077-280300-
SOUTH CENTRAL/SOUTHEAST OKLAHOMA

CITY           SKY/WX    TMP DP  RH WIND       PRES   REMARKS
ARDMORE/DWNTWN CLEAR     59  48  67 CALM      29.89R
MCALESTER      PTCLDY    60  50  69 E5        29.91R
$$





USA.gov is the U.S. government's official web portal to all federal, state and local government web resources and services.